This is the latest recevied weather packets stored in our database for station/object KD4MBW. If no packets are shown the sender has not sent any weather packets the latest 10 day(s).
| Time | Temp. | Humidity | Pressure | Rain* | Wind** | Luminosity | Snow |
|---|---|---|---|---|---|---|---|
| 1787589906 | 33.33° C | 66% | 1016.2 hPa | 0 mm | - | 726 W/m² | - |
| 1787589602 | 33.89° C | 68% | 1016.3 hPa | 0 mm | - | 723 W/m² | - |
| 1787589296 | 33.89° C | 67% | 1016.1 hPa | 0 mm | - | 718 W/m² | - |
| 1787588992 | 33.33° C | 66% | 1016.1 hPa | 0 mm | - | 708 W/m² | - |
| 1787588688 | 33.33° C | 70% | 1016.4 hPa | 0 mm | - | 706 W/m² | - |
| 1787588383 | 33.33° C | 66% | 1016.2 hPa | 0 mm | - | 692 W/m² | - |
| 1787588078 | 33.33° C | 70% | 1016.3 hPa | 0 mm | - | 683 W/m² | - |
| 1787587774 | 33.33° C | 68% | 1016.5 hPa | 0 mm | - | 676 W/m² | - |
| 1787587469 | 33.33° C | 69% | 1016.3 hPa | 0 mm | - | 666 W/m² | - |
| 1787587167 | 32.78° C | 72% | 1016.5 hPa | 0 mm | - | 653 W/m² | - |
| 1787586868 | 32.78° C | 74% | 1016.2 hPa | 0 mm | - | 661 W/m² | - |
| 1787586563 | 32.78° C | 76% | 1016.5 hPa | 0 mm | - | 646 W/m² | - |
| 1787586258 | 32.78° C | 74% | 1016.4 hPa | 0 mm | - | 664 W/m² | - |
| 1787585955 | 32.22° C | 78% | 1016.5 hPa | 0 mm | - | 238 W/m² | - |
| 1787585654 | 32.78° C | 78% | 1016.7 hPa | 0 mm | - | 228 W/m² | - |
| 1787585349 | 32.78° C | 76% | 1016.8 hPa | 0 mm | - | 637 W/m² | - |
| 1787585050 | 32.22° C | 77% | 1016.5 hPa | 0 mm | - | 605 W/m² | - |
| 1787584745 | 31.67° C | 79% | 1016.5 hPa | 0 mm | - | 585 W/m² | - |
| 1787584443 | 31.67° C | 80% | 1016.6 hPa | 0 mm | - | 583 W/m² | - |
| 1787584143 | 31.67° C | 83% | 1016.5 hPa | 0 mm | - | 237 W/m² | - |
| 1787583837 | 31.67° C | 83% | 1016.5 hPa | 0 mm | - | 572 W/m² | - |
| 1787583532 | 31.67° C | 85% | 1016.8 hPa | 0 mm | - | 578 W/m² | - |
| 1787583232 | 31.67° C | 84% | 1016.8 hPa | 0 mm | - | 554 W/m² | - |
| 1787582926 | 31.67° C | 85% | 1016.6 hPa | 0 mm | - | 524 W/m² | - |
| 1787582621 | 31.67° C | 86% | 1016.6 hPa | 0 mm | - | 534 W/m² | - |
* Rain latest hour (hover to see other rain measurements)
** Current wind speed in m/s (hover to see current wind gust speed)